Japanese version Home page |
Updated on October 21, 2008 |
Profile
|
Orbital ElementsEpoch = 2001 Apr. 1.0 TT T = 2001 Mar. 14.1052 TT Peri. = 271.0222 e = 0.758290 Node = 200.7993 2000.0 q = 0.937075 AU Incl. = 10.1577 a = 3.876861 AU n = 0.1291171 P = 7.633 years
|
Finding Charts
|
Magnitudes Graphm1 = 16.0 + 5 log d + 10.0 log r
|
The orbital elements are printed on IAUC 8996.
|